Airfield :
LOGIN :

Register | Disclaimer

   EN    FR    IT 

 










Legend :    VFR   Marginal VFR   IFR   Intensive IFR   Very Intensive IFR
Visi :
Ceiling :
>= 8 km
>= 3000ft
5 to 8 km
1000 to 3000 ft
1500m to 5 km
500 to 1000 ft
800 to 1500m
200 to 500 ft
< 800m
< 200 ft
Symbols :   Thunderstorms  Fog  Heavy snow  Heavy precipitations  Wind > 20 kt
SIGMETs :     Misc.  Thunderstorms  Icing  Turbulence  Mountain Waves  Volcanic Ashes






- Airport Elevation : 1686 ft
- IATA code : MUW


DAOV - Ghriss

CURRENT METAR :
  • 141500Z 34017KT 9999 SCT023 22/10 Q1020

EXPIRED METARs :
  • 141400Z 34015KT 9999 SCT023 22/10 Q1020
  • 141300Z 03008KT 9999 SCT023 23/06 Q1021
  • 141200Z 03013KT 9999 SCT023 21/07 Q1022
  • 141100Z 34012KT 9000 SCT023 19/09 Q1023

TAF TAF DAOV
Valid from the 14 at 15:00 until the 15 at 00:00 UTC


141400Z 1415/1424 35015KT 9999 SCT020 SCT026
PROB30
TEMPO 1416/1420 FEW026TCU
BECMG 1420/1422 VRB02KT



MET'MAP, your aeronautical weather chart ! - Copyright ORBIFLY December 2007 - Disclaimer

ORBIFLY MET'MAP TEAM :

Programming & Development : Alexandra Zaïnal
Original concept : Baudouin d'Aumeries
Technical & hardware support : Manuel Goepfert
Assistance : Marc-Olivier Méhu




SOURCES & CREDITS :

   NOAA